SH002 KNSE-KNSE

Flight info

Callsign SH002
Flight time N/A
Altitude 12500
Route KNSE KTLH KPAM KNSE
Aircraft TEX2/L-SDFGRWY/S

Departure

Time 2026-04-25 01:17
Airport Whiting Field Naval Air Station - North (KNSE)

Arrival

Time N/A
Airport Whiting Field Naval Air Station - North (KNSE)
Time Latitude Longitude Altitude Speed Heading
2026-04-25 00:44 30.71378 -87.02603 175 ft 0 kts 271°
2026-04-25 01:07 30.71410 -87.02624 175 ft 8 kts
2026-04-25 01:07 30.71473 -87.02621 175 ft 15 kts
2026-04-25 01:07 30.71624 -87.02602 175 ft 24 kts 358°
2026-04-25 01:08 30.71751 -87.02610 175 ft 13 kts
2026-04-25 01:08 30.71812 -87.02606 175 ft 5 kts
2026-04-25 01:08 30.71864 -87.02603 175 ft 9 kts
2026-04-25 01:08 30.71933 -87.02579 176 ft 9 kts 31°
2026-04-25 01:09 30.71997 -87.02540 176 ft 14 kts 10°
2026-04-25 01:09 30.72061 -87.02561 176 ft 6 kts 291°
2026-04-25 01:09 30.72068 -87.02656 178 ft 15 kts 283°
2026-04-25 01:09 30.72114 -87.02728 178 ft 6 kts 327°
2026-04-25 01:10 30.72144 -87.02743 178 ft 6 kts 346°
2026-04-25 01:10 30.72213 -87.02744 179 ft 11 kts
2026-04-25 01:10 30.72295 -87.02741 180 ft 11 kts
2026-04-25 01:10 30.72368 -87.02741 182 ft 10 kts
2026-04-25 01:11 30.72439 -87.02737 183 ft 9 kts
2026-04-25 01:11 30.72504 -87.02734 184 ft 9 kts
2026-04-25 01:11 30.72565 -87.02732 186 ft 8 kts
2026-04-25 01:11 30.72629 -87.02731 186 ft 9 kts
2026-04-25 01:12 30.72700 -87.02731 186 ft 10 kts 353°
2026-04-25 01:12 30.72761 -87.02778 187 ft 10 kts 319°
2026-04-25 01:12 30.72813 -87.02837 188 ft 10 kts 311°
2026-04-25 01:12 30.72861 -87.02884 188 ft 8 kts 321°
2026-04-25 01:13 30.72908 -87.02906 189 ft 4 kts
2026-04-25 01:13 30.72919 -87.02903 189 ft 0 kts 15°
2026-04-25 01:13 30.72944 -87.02887 190 ft 5 kts 41°
2026-04-25 01:14 30.72953 -87.02882 190 ft 0 kts 24°
2026-04-25 01:15 30.72980 -87.02811 190 ft 10 kts 108°
2026-04-25 01:16 30.72949 -87.02763 190 ft 17 kts 137°
2026-04-25 01:16 30.72656 -87.02444 218 ft 82 kts 136°
2026-04-25 01:16 30.72189 -87.01923 381 ft 101 kts 137°
2026-04-25 01:16 30.71645 -87.01312 689 ft 128 kts 131°
2026-04-25 01:17 30.71389 -87.00205 1127 ft 161 kts 83°
2026-04-25 01:17 30.71614 -86.99352 1516 ft 173 kts 71°
2026-04-25 01:17 30.72190 -86.97562 2338 ft 187 kts 71°
2026-04-25 01:17 30.72654 -86.96049 2643 ft 211 kts 72°
2026-04-25 01:18 30.73169 -86.94354 2899 ft 229 kts 71°
2026-04-25 01:18 30.73712 -86.92540 3030 ft 247 kts 71°
2026-04-25 01:18 30.74300 -86.90579 3006 ft 263 kts 71°
2026-04-25 01:18 30.74910 -86.88555 3093 ft 267 kts 71°
2026-04-25 01:19 30.75510 -86.86544 3569 ft 258 kts 71°
2026-04-25 01:19 30.76082 -86.84626 4046 ft 252 kts 70°
2026-04-25 01:19 30.76788 -86.82774 4601 ft 246 kts 65°
2026-04-25 01:19 30.77487 -86.80971 5189 ft 242 kts 65°
2026-04-25 01:20 30.78159 -86.79205 5763 ft 240 kts 65°
2026-04-25 01:20 30.78825 -86.77434 6367 ft 237 kts 65°
2026-04-25 01:20 30.79437 -86.75761 7316 ft 221 kts 65°
2026-04-25 01:20 30.80006 -86.74175 8146 ft 213 kts 65°
2026-04-25 01:21 30.80553 -86.72586 8937 ft 211 kts 65°
2026-04-25 01:21 30.81070 -86.71025 9695 ft 210 kts 65°
2026-04-25 01:21 30.81574 -86.69450 10450 ft 212 kts 65°
2026-04-25 01:21 30.82073 -86.67828 11203 ft 213 kts 65°
2026-04-25 01:22 30.82388 -86.66140 11821 ft 226 kts 87°
2026-04-25 01:22 30.82272 -86.64270 12255 ft 243 kts 90°
2026-04-25 01:22 30.82133 -86.62232 12603 ft 259 kts 90°
2026-04-25 01:22 30.81986 -86.60084 12954 ft 272 kts 90°
2026-04-25 01:23 30.81830 -86.57852 13256 ft 283 kts 90°
2026-04-25 01:23 30.81670 -86.55540 13431 ft 296 kts 90°
2026-04-25 01:23 30.81506 -86.53085 13507 ft 309 kts 90°
2026-04-25 01:23 30.81345 -86.50570 13517 ft 319 kts 90°
2026-04-25 01:24 30.81187 -86.47974 13519 ft 326 kts 90°
2026-04-25 01:24 30.81032 -86.45299 13520 ft 331 kts 90°
2026-04-25 01:24 30.80879 -86.42605 13514 ft 334 kts 90°
2026-04-25 01:24 30.80732 -86.39929 13505 ft 336 kts 90°
2026-04-25 01:25 30.80582 -86.37215 13501 ft 337 kts 90°
2026-04-25 01:25 30.80430 -86.34485 13501 ft 336 kts 90°
2026-04-25 01:25 30.80273 -86.31812 13487 ft 325 kts 90°
2026-04-25 01:25 30.80125 -86.29216 13486 ft 318 kts 90°
2026-04-25 01:26 30.79972 -86.26673 13488 ft 312 kts 90°
2026-04-25 01:26 30.79821 -86.24171 13490 ft 308 kts 90°
2026-04-25 01:26 30.79667 -86.21729 13489 ft 305 kts 90°
2026-04-25 01:26 30.79513 -86.19248 13490 ft 303 kts 90°
2026-04-25 01:27 30.79363 -86.16840 13487 ft 301 kts 90°
2026-04-25 01:27 30.79209 -86.14410 13486 ft 299 kts 90°
2026-04-25 01:27 30.79051 -86.12001 13489 ft 298 kts 90°
2026-04-25 01:28 30.78743 -86.07216 13484 ft 296 kts 90°
2026-04-25 01:28 30.78590 -86.04833 13485 ft 295 kts 90°
2026-04-25 01:28 30.78438 -86.02470 13481 ft 295 kts 90°
2026-04-25 01:28 30.78287 -86.00093 13477 ft 294 kts 90°
2026-04-25 01:29 30.78132 -85.97711 13486 ft 294 kts 90°
2026-04-25 01:29 30.77981 -85.95335 13488 ft 294 kts 90°
2026-04-25 01:29 30.77829 -85.92970 13487 ft 293 kts 90°
2026-04-25 01:29 30.77672 -85.90602 13489 ft 294 kts 90°
2026-04-25 01:30 30.77521 -85.88263 13490 ft 294 kts 90°
2026-04-25 01:30 30.77369 -85.85864 13493 ft 293 kts 90°
2026-04-25 01:30 30.77218 -85.83553 13483 ft 280 kts 90°
2026-04-25 01:30 30.77064 -85.81343 13487 ft 275 kts 90°
2026-04-25 01:31 30.76905 -85.79106 13496 ft 279 kts 90°
2026-04-25 01:31 30.76751 -85.76856 13496 ft 282 kts 89°
2026-04-25 01:31 30.76594 -85.74577 13498 ft 284 kts 89°
2026-04-25 01:31 30.76442 -85.72264 13496 ft 286 kts 90°
2026-04-25 01:32 30.76314 -85.69945 13494 ft 286 kts 86°
2026-04-25 01:32 30.76262 -85.67641 13495 ft 287 kts 86°
2026-04-25 01:32 30.76212 -85.65299 13495 ft 288 kts 86°
2026-04-25 01:32 30.76161 -85.62987 13496 ft 289 kts 86°
2026-04-25 01:33 30.76118 -85.60632 13493 ft 290 kts 86°
2026-04-25 01:33 30.76071 -85.58304 13496 ft 290 kts 86°
2026-04-25 01:33 30.76029 -85.55956 13488 ft 291 kts 86°
2026-04-25 01:33 30.75980 -85.53595 13484 ft 291 kts 86°
2026-04-25 01:34 30.75938 -85.51255 13485 ft 291 kts 86°
2026-04-25 01:34 30.75891 -85.48899 13482 ft 291 kts 86°
2026-04-25 01:34 30.75849 -85.46538 13483 ft 291 kts 86°
2026-04-25 01:34 30.75806 -85.44174 13486 ft 291 kts 86°
2026-04-25 01:35 30.75784 -85.41843 13484 ft 290 kts 83°
2026-04-25 01:35 30.75843 -85.39498 13483 ft 290 kts 83°
2026-04-25 01:35 30.75919 -85.37152 13482 ft 289 kts 82°
2026-04-25 01:35 30.76013 -85.34812 13481 ft 289 kts 82°
2026-04-25 01:36 30.76107 -85.32484 13477 ft 288 kts 83°
2026-04-25 01:36 30.76206 -85.30127 13477 ft 288 kts 82°
2026-04-25 01:36 30.76299 -85.27808 13476 ft 288 kts 83°
2026-04-25 01:36 30.76424 -85.25482 13471 ft 286 kts 79°
2026-04-25 01:37 30.76643 -85.23205 13478 ft 285 kts 78°
2026-04-25 01:37 30.76873 -85.20927 13482 ft 285 kts 78°
2026-04-25 01:37 30.77105 -85.18607 13484 ft 285 kts 78°
2026-04-25 01:37 30.77420 -85.16350 13503 ft 281 kts 72°
2026-04-25 01:38 30.77857 -85.14155 13484 ft 280 kts 67°
2026-04-25 01:38 30.78624 -85.12084 13466 ft 273 kts 49°
2026-04-25 01:38 30.79541 -85.10181 13456 ft 281 kts 72°
2026-04-25 01:38 30.79442 -85.07883 13478 ft 291 kts 105°
2026-04-25 01:39 30.78689 -85.05692 13501 ft 292 kts 109°
2026-04-25 01:39 30.77929 -85.03518 13500 ft 293 kts 109°
2026-04-25 01:39 30.77150 -85.01294 13472 ft 295 kts 109°
2026-04-25 01:39 30.76406 -84.99155 13165 ft 277 kts 109°
2026-04-25 01:40 30.75714 -84.97162 12891 ft 260 kts 110°
2026-04-25 01:40 30.75006 -84.95278 12593 ft 247 kts 111°
2026-04-25 01:40 30.74332 -84.93493 12281 ft 236 kts 111°
2026-04-25 01:40 30.73687 -84.91769 11961 ft 228 kts 111°
2026-04-25 01:41 30.73072 -84.90110 11629 ft 221 kts 111°
2026-04-25 01:41 30.72481 -84.88493 11301 ft 216 kts 111°
2026-04-25 01:41 30.71909 -84.86911 10966 ft 211 kts 111°
2026-04-25 01:41 30.71351 -84.85355 10623 ft 207 kts 111°
2026-04-25 01:42 30.70803 -84.83808 10281 ft 203 kts 111°
2026-04-25 01:42 30.70277 -84.82300 9936 ft 200 kts 111°
2026-04-25 01:42 30.69767 -84.80821 9589 ft 197 kts 111°
2026-04-25 01:42 30.69259 -84.79358 9242 ft 195 kts 111°
2026-04-25 01:43 30.68740 -84.77904 8892 ft 192 kts 111°
2026-04-25 01:43 30.68220 -84.76479 8547 ft 190 kts 111°
2026-04-25 01:43 30.67706 -84.75079 8207 ft 187 kts 111°
2026-04-25 01:43 30.67196 -84.73695 7861 ft 185 kts 111°
2026-04-25 01:44 30.66692 -84.72345 7521 ft 182 kts 111°
2026-04-25 01:44 30.66197 -84.70991 7172 ft 180 kts 111°
2026-04-25 01:44 30.65723 -84.69676 6831 ft 177 kts 111°
2026-04-25 01:44 30.65260 -84.68360 6488 ft 175 kts 111°
2026-04-25 01:45 30.64804 -84.67050 6139 ft 174 kts 111°
2026-04-25 01:45 30.64356 -84.65736 5787 ft 172 kts 110°